DW7980 Weather Reports


time (UTC)temp
C
wind
direction
speed
KPH
gust
KPH
rain 1hr
cm
rain 24hr
cm
rain mn
cm
humidity
%
barometer
mb
20260506015044 16 100 0.0 3.2 0.00 0.00 0.00 75 1015.8
20260506014542 16 0 0.0 0.0 0.00 0.00 0.00 76 1015.9
20260506014042 16 0 0.0 0.0 0.00 0.00 0.00 75 1015.9
20260506013541 16 0 0.0 0.0 0.00 0.00 0.00 75 1015.9
20260506013058 16 0 0.0 0.0 0.00 0.00 0.00 75 1015.9
20260506012539 16 0 0.0 0.0 0.00 0.00 0.00 74 1015.8
20260506012039 16 0 0.0 0.0 0.00 0.00 0.00 75 1015.9
20260506011604 16 0 0.0 0.0 0.00 0.00 0.00 74 1015.8
20260506011038 16 0 0.0 0.0 0.00 0.00 0.00 75 1015.9
20260506010539 16 0 0.0 0.0 0.00 0.00 0.00 74 1015.9
20260506010055 16 0 0.0 0.0 0.00 0.00 0.00 74 1015.8
20260506005540 17 0 0.0 0.0 0.00 0.00 0.00 75 1015.9
20260506005037 17 0 0.0 0.0 0.00 0.00 0.00 74 1015.9
20260506004543 17 0 0.0 0.0 0.00 0.00 0.00 75 1015.9
20260506004039 17 0 0.0 0.0 0.00 0.00 0.00 74 1015.9
20260506003537 17 0 0.0 0.0 0.00 0.00 0.00 73 1016.0
20260506003043 17 0 0.0 0.0 0.00 0.00 0.00 73 1016.0
20260506002536 17 0 0.0 0.0 0.00 0.00 0.00 74 1015.9
20260506002039 16 0 0.0 0.0 0.00 0.00 0.00 74 1016.0
20260506001553 16 0 0.0 0.0 0.00 0.00 0.00 75 1016.0
20260506001038 16 0 0.0 0.0 0.00 0.00 0.00 73 1016.0
20260506000539 17 0 0.0 0.0 0.00 0.00 0.00 74 1016.1
20260506000051 17 0 0.0 0.0 0.00 0.00 0.00 73 1016.1
20260505235539 17 0 0.0 0.0 0.00 0.00 0.00 76 1016.2
20260505235038 17 0 0.0 0.0 0.00 0.00 0.00 73 1016.2
20260505234546 17 0 0.0 0.0 0.00 0.00 0.00 73 1016.3
20260505234039 17 0 0.0 0.0 0.00 0.00 0.00 73 1016.3
20260505233538 17 0 0.0 0.0 0.00 0.00 0.00 73 1016.3
20260505233047 17 0 0.0 0.0 0.00 0.00 0.00 74 1016.2
20260505232538 17 0 0.0 0.0 0.00 0.00 0.00 73 1016.3
20260505232041 17 0 0.0 0.0 0.00 0.00 0.00 75 1016.3
20260505231607 17 0 0.0 0.0 0.00 0.00 0.00 74 1016.3
20260505231039 17 0 0.0 0.0 0.00 0.00 0.00 72 1016.4
20260505230537 17 0 0.0 0.0 0.00 0.00 0.00 73 1016.3
20260505230049 17 0 0.0 0.0 0.00 0.00 0.00 75 1016.4
20260505225539 17 0 0.0 0.0 0.00 0.00 0.00 73 1016.4
20260505225038 17 0 0.0 1.6 0.00 0.00 0.00 75 1016.4
20260505224554 17 0 0.0 3.2 0.00 0.00 0.00 76 1016.4
20260505224039 17 0 0.0 3.2 0.00 0.00 0.00 75 1016.5
20260505223538 16 190 0.0 3.2 0.00 0.00 0.00 74 1016.5
20260505223052 16 0 0.0 4.8 0.00 0.00 0.00 75 1016.5
20260505222542 16 190 0.0 4.8 0.00 0.00 0.00 74 1016.6
20260505222038 17 190 0.0 3.2 0.00 0.00 0.00 72 1016.6
20260505221553 17 129 0.0 3.2 0.00 0.00 0.00 74 1016.7
20260505221038 16 130 0.0 3.2 0.00 0.00 0.00 74 1016.6
20260505220539 16 0 0.0 3.2 0.00 0.00 0.00 73 1016.7
20260505220051 17 0 0.0 3.2 0.00 0.00 0.00 73 1016.6
20260505215538 17 129 0.0 3.2 0.00 0.00 0.00 74 1016.6
20260505215040 17 129 1.6 3.2 0.00 0.00 0.00 73 1016.6
20260505214554 17 91 0.0 3.2 0.00 0.00 0.00 74 1016.7
20260505214038 17 80 0.0 3.2 0.00 0.00 0.00 75 1016.6
20260505213538 17 0 0.0 3.2 0.00 0.00 0.00 76 1016.7
20260505213049 16 128 0.0 3.2 0.00 0.00 0.00 73 1016.7
20260505212538 16 190 0.0 3.2 0.00 0.00 0.00 74 1016.7
20260505212039 16 0 0.0 3.2 0.00 0.00 0.00 75 1016.7
20260505211549 16 105 0.0 4.8 0.00 0.00 0.00 75 1016.8
20260505211039 16 107 0.0 4.8 0.00 0.00 0.00 76 1016.8
20260505210539 16 220 0.0 4.8 0.00 0.00 0.00 75 1016.8
20260505210045 16 221 0.0 6.4 0.00 0.00 0.00 75 1016.8
20260505205541 16 181 1.6 6.4 0.00 0.00 0.00 77 1016.8
20260505205038 16 163 1.6 6.4 0.00 0.00 0.00 77 1016.8
20260505204548 16 184 1.6 8.0 0.00 0.00 0.00 76 1016.8
20260505204040 16 184 3.2 8.0 0.00 0.00 0.00 77 1016.9
20260505203543 16 247 3.2 8.0 0.00 0.00 0.00 76 1016.9
20260505203107 16 138 1.6 6.4 0.00 0.00 0.00 78 1016.9
20260505202539 16 112 1.6 8.0 0.00 0.00 0.00 77 1016.9
20260505202039 15 168 0.0 8.0 0.00 0.00 0.00 77 1016.9
20260505201603 15 0 1.6 6.4 0.00 0.00 0.00 77 1017.0
20260505201038 16 178 1.6 6.4 0.00 0.00 0.00 76 1017.0
20260505200539 16 0 0.0 6.4 0.00 0.00 0.00 77 1017.1
20260505200053 16 96 3.2 6.4 0.00 0.00 0.00 76 1017.0
20260505195542 15 202 0.0 4.8 0.00 0.00 0.00 78 1017.0
20260505195038 15 0 1.6 4.8 0.00 0.00 0.00 77 1017.1
20260505194548 15 0 0.0 4.8 0.00 0.00 0.00 78 1017.0
20260505194038 15 40 0.0 4.8 0.00 0.00 0.00 80 1017.0
20260505193537 15 0 0.0 6.4 0.00 0.00 0.00 79 1017.0
20260505193046 15 0 1.6 6.4 0.00 0.00 0.00 79 1017.0
20260505192538 15 179 0.0 0.0 0.00 0.00 0.00 79 1017.1
20260505192042 15 0 0.0 0.0 0.00 0.00 0.00 80 1017.0
20260505191550 15 0 0.0 0.0 0.00 0.00 0.00 80 1017.0
20260505191038 14 0 0.0 0.0 0.00 0.00 0.00 81 1017.0
20260505190539 14 0 0.0 0.0 0.00 0.00 0.00 80 1017.1
20260505190050 14 0 0.0 0.0 0.00 0.00 0.00 80 1017.1
20260505185537 14 0 0.0 0.0 0.00 0.00 0.00 81 1017.0
20260505185040 13 0 0.0 0.0 0.00 0.00 0.00 81 1017.1
20260505184549 13 0 0.0 0.0 0.00 0.00 0.00 82 1017.1
20260505184039 13 0 0.0 0.0 0.00 0.00 0.00 82 1017.2
20260505183542 13 0 0.0 0.0 0.00 0.00 0.00 81 1017.2
20260505183046 13 0 0.0 0.0 0.00 0.00 0.00 83 1017.2
20260505182538 13 0 0.0 0.0 0.00 0.00 0.00 84 1017.1
20260505182038 13 0 0.0 0.0 0.00 0.00 0.00 83 1017.1
20260505181547 13 0 0.0 1.6 0.00 0.00 0.00 83 1017.0
20260505181038 13 0 0.0 3.2 0.00 0.00 0.00 83 1017.0
20260505180540 13 0 0.0 3.2 0.00 0.00 0.00 83 1017.0
20260505180057 13 292 1.6 6.4 0.00 0.00 0.00 83 1017.0
20260505175539 13 0 0.0 6.4 0.00 0.00 0.00 83 1017.0
20260505175039 13 190 1.6 8.0 0.00 0.00 0.00 83 1017.1
20260505174546 13 170 0.0 8.0 0.00 0.00 0.00 83 1017.1
20260505174038 13 135 1.6 6.4 0.00 0.00 0.00 84 1017.0
20260505173537 13 0 0.0 4.8 0.00 0.00 0.00 84 1016.9
20260505173055 13 178 3.2 4.8 0.00 0.00 0.00 83 1017.0
20260505172538 13 196 0.0 6.4 0.00 0.00 0.00 84 1016.9
20260505172039 12 0 1.6 6.4 0.00 0.00 0.00 85 1016.8
20260505171550 12 0 0.0 4.8 0.00 0.00 0.00 85 1016.8
20260505171039 12 0 1.6 6.4 0.00 0.00 0.00 85 1016.9
20260505170540 12 0 1.6 6.4 0.00 0.00 0.00 86 1016.9
20260505170104 12 168 1.6 6.4 0.00 0.00 0.00 86 1016.8
20260505165538 12 0 1.6 6.4 0.00 0.00 0.00 86 1016.8
20260505165043 12 225 1.6 8.0 0.00 0.00 0.00 86 1016.7
20260505164550 12 184 3.2 8.0 0.00 0.00 0.00 86 1016.7
20260505164038 12 218 3.2 8.0 0.00 0.00 0.00 87 1016.7
20260505163538 12 0 0.0 0.0 0.00 0.00 0.00 87 1016.8
20260505163044 12 0 0.0 0.0 0.00 0.00 0.00 87 1016.7
20260505162538 12 0 0.0 0.0 0.00 0.00 0.00 87 1016.6
20260505162038 11 0 0.0 0.0 0.00 0.00 0.00 87 1016.6
20260505161612 11 0 0.0 1.6 0.00 0.00 0.00 87 1016.6
20260505161039 11 0 0.0 3.2 0.00 0.00 0.00 88 1016.6
20260505160538 11 0 0.0 3.2 0.00 0.00 0.00 88 1016.6
20260505153056 11 0 1.6 4.8 0.00 0.00 0.00 88 1016.7
20260505152538 11 196 0.0 3.2 0.00 0.00 0.00 88 1016.6
20260505152039 11 0 0.0 3.2 0.00 0.00 0.00 88 1016.6
20260505151603 11 0 0.0 3.2 0.00 0.00 0.00 88 1016.6
20260505151040 11 0 0.0 3.2 0.00 0.00 0.00 88 1016.6
20260505150542 11 0 0.0 1.6 0.00 0.00 0.00 88 1016.6
20260505140540 11 0 0.0 3.2 0.00 0.00 0.00 87 1016.0
20260505125040 11 0 0.0 1.6 0.00 0.00 0.00 86 1015.7
20260505124549 11 0 0.0 3.2 0.00 0.00 0.00 86 1015.7
20260505124038 11 0 0.0 3.2 0.00 0.00 0.00 86 1015.7
20260505123540 11 0 0.0 3.2 0.00 0.00 0.00 86 1015.8
20260505123051 11 0 0.0 3.2 0.00 0.00 0.00 86 1015.7
20260505122544 11 0 0.0 3.2 0.00 0.00 0.00 86 1015.7
20260505122038 11 0 0.0 1.6 0.00 0.00 0.00 86 1015.7
20260505121608 11 0 0.0 1.6 0.00 0.00 0.00 86 1015.8
20260505121039 11 0 0.0 1.6 0.00 0.00 0.00 86 1015.7
20260505120538 11 0 0.0 3.2 0.00 0.00 0.00 86 1015.6
20260505120048 11 0 0.0 3.2 0.00 0.00 0.00 86 1015.6
20260505115544 11 0 0.0 1.6 0.00 0.00 0.00 86 1015.6
20260505115038 11 0 0.0 6.4 0.00 0.00 0.00 86 1015.6
20260505114548 11 0 0.0 6.4 0.00 0.00 0.00 85 1015.6
20260505114041 11 0 0.0 4.8 0.00 0.00 0.00 85 1015.6
20260505113538 11 0 0.0 4.8 0.00 0.00 0.00 85 1015.6
20260505113047 11 0 0.0 3.2 0.00 0.00 0.00 85 1015.6
20260505112538 11 0 0.0 3.2 0.00 0.00 0.00 85 1015.5
20260505112039 11 0 0.0 4.8 0.00 0.00 0.00 85 1015.4
20260505111546 11 0 0.0 4.8 0.00 0.00 0.00 85 1015.4
20260505111040 11 192 0.0 4.8 0.00 0.00 0.00 85 1015.4
20260505110541 11 0 0.0 3.2 0.00 0.00 0.00 85 1015.3
20260505102038 11 0 0.0 3.2 0.00 0.00 0.00 85 1015.0
20260505101556 11 0 0.0 3.2 0.00 0.00 0.00 85 1015.0
20260505101038 11 0 0.0 3.2 0.00 0.00 0.00 85 1014.8
20260505100538 11 178 0.0 4.8 0.00 0.00 0.00 85 1014.7
20260505100048 11 0 0.0 4.8 0.00 0.00 0.00 85 1014.8
20260505095539 11 178 0.0 6.4 0.00 0.00 0.00 85 1014.8
20260505095039 11 0 1.6 6.4 0.00 0.00 0.00 85 1014.9
20260505094542 11 178 1.6 4.8 0.00 0.00 0.00 85 1014.8
20260505094038 11 0 0.0 4.8 0.00 0.00 0.00 85 1014.6
20260505093539 11 178 0.0 4.8 0.00 0.00 0.00 85 1014.6
20260505093050 11 202 1.6 4.8 0.00 0.00 0.00 85 1014.6
20260505092539 11 219 0.0 3.2 0.00 0.00 0.00 85 1014.6
20260505092038 11 0 0.0 3.2 0.00 0.00 0.00 85 1014.6
20260505091554 11 0 0.0 3.2 0.00 0.00 0.00 85 1014.5
20260505091038 11 219 0.0 4.8 0.00 0.00 0.00 84 1014.6
20260505090538 11 219 0.0 4.8 0.00 0.00 0.00 84 1014.5
20260505090059 11 0 1.6 4.8 0.00 0.00 0.00 84 1014.5
20260505085539 11 188 0.0 4.8 0.00 0.00 0.00 84 1014.5
20260505085039 11 190 0.0 4.8 0.00 0.00 0.00 84 1014.5
20260505084551 11 190 0.0 6.4 0.00 0.00 0.00 84 1014.6
20260505084038 12 216 1.6 8.0 0.00 0.00 0.00 84 1014.5
20260505083538 12 180 0.0 8.0 0.00 0.00 0.00 84 1014.5
20260505083056 12 179 1.6 6.4 0.00 0.00 0.00 83 1014.4
20260505082539 12 175 1.6 8.0 0.00 0.00 0.00 83 1014.4
20260505082039 12 236 1.6 8.0 0.00 0.00 0.00 83 1014.5
20260505081550 12 182 1.6 8.0 0.00 0.00 0.00 83 1014.5
20260505081038 12 215 1.6 8.0 0.00 0.00 0.00 84 1014.4
20260505080539 12 178 3.2 6.4 0.00 0.00 0.00 83 1014.4
20260505080048 12 0 0.0 4.8 0.00 0.00 0.00 84 1014.4
20260505075542 12 176 0.0 4.8 0.00 0.00 0.00 84 1014.4
20260505075039 12 214 0.0 4.8 0.00 0.00 0.00 84 1014.3
20260505074549 12 0 0.0 4.8 0.00 0.00 0.00 84 1014.3
20260505074038 12 0 1.6 4.8 0.00 0.00 0.00 83 1014.2
20260505073538 12 260 0.0 4.8 0.00 0.00 0.00 83 1014.1
20260505073048 12 178 0.0 4.8 0.00 0.00 0.00 83 1014.1
20260505072542 12 178 0.0 6.4 0.00 0.00 0.00 83 1014.1
20260505072039 12 178 0.0 6.4 0.00 0.00 0.00 82 1013.9
20260505071554 12 181 1.6 6.4 0.00 0.00 0.00 82 1013.8
20260505071038 12 0 0.0 4.8 0.00 0.00 0.00 82 1013.8
20260505070539 12 0 0.0 4.8 0.00 0.00 0.00 82 1013.6
20260505070051 12 0 0.0 9.7 0.00 0.00 0.00 82 1013.6
20260505065539 12 190 3.2 9.7 0.00 0.00 0.00 81 1013.6
20260505065038 12 180 1.6 9.7 0.00 0.00 0.00 81 1013.6
20260505064549 12 190 3.2 9.7 0.00 0.00 0.00 81 1013.4
20260505064038 13 0 1.6 9.7 0.00 0.00 0.00 81 1013.4
20260505063538 13 240 1.6 9.7 0.00 0.00 0.00 80 1013.4
20260505063052 13 211 3.2 11.3 0.00 0.00 0.00 80 1013.4
20260505062539 13 217 3.2 11.3 0.00 0.00 0.00 80 1013.4
20260505062039 13 180 1.6 11.3 0.00 0.00 0.00 80 1013.4
20260505061552 13 202 4.8 11.3 0.00 0.00 0.00 79 1013.3
20260505061038 13 222 1.6 8.0 0.00 0.00 0.00 80 1013.2
20260505060538 13 182 3.2 8.0 0.00 0.00 0.00 79 1013.3
20260505060056 14 184 1.6 6.4 0.00 0.00 0.00 80 1013.3
20260505055539 14 184 1.6 6.4 0.00 0.00 0.00 80 1013.3
20260505055038 14 0 1.6 4.8 0.00 0.00 0.00 80 1013.2
20260505054554 15 272 0.0 3.2 0.00 0.00 0.00 79 1013.2
20260505054038 15 272 0.0 3.2 0.00 0.00 0.00 79 1013.2
20260505053538 15 272 0.0 6.4 0.00 0.00 0.00 79 1013.1
20260505053105 15 0 0.0 6.4 0.00 0.00 0.00 78 1013.1
20260505052538 15 0 0.0 4.8 0.00 0.00 0.00 78 1013.0
20260505052039 15 0 0.0 8.0 0.00 0.00 0.00 78 1012.9
20260505051553 15 0 1.6 12.9 0.00 0.00 0.00 78 1012.9
20260505051039 15 225 1.6 12.9 0.00 0.00 0.00 78 1012.9
20260505050539 16 196 1.6 6.4 0.00 0.00 0.00 78 1012.9
20260505041553 17 173 1.6 4.8 0.00 0.00 0.00 77 1012.1
20260505041039 16 180 1.6 6.4 0.00 0.00 0.00 78 1012.0
20260505040539 16 0 1.6 6.4 0.00 0.00 0.00 79 1012.0
20260505040050 17 240 1.6 6.4 0.00 0.00 0.00 79 1011.9
20260505035539 17 0 0.0 4.8 0.00 0.00 0.00 79 1011.8
20260505035041 17 0 1.6 4.8 0.00 0.00 0.00 79 1011.7
20260505034550 17 175 1.6 4.8 0.00 0.00 0.00 79 1011.7
20260505034039 17 172 0.0 3.2 0.00 0.00 0.00 79 1011.5
20260505033540 17 172 0.0 3.2 0.00 0.00 0.00 78 1011.6
20260505033110 17 172 0.0 3.2 0.00 0.00 0.00 78 1011.4
20260505032537 17 172 0.0 3.2 0.00 0.00 0.00 77 1011.5
20260505032039 18 0 0.0 3.2 0.00 0.00 0.00 77 1011.4
20260505031552 18 172 0.0 3.2 0.00 0.00 0.00 76 1011.2
20260505031042 18 0 0.0 1.6 0.00 0.00 0.00 76 1011.2
20260505030539 18 0 0.0 3.2 0.00 0.00 0.00 76 1011.2
20260505030052 18 0 0.0 4.8 0.00 0.00 0.00 75 1011.2
20260505025538 18 172 0.0 4.8 0.00 0.00 0.00 75 1011.1
20260505025040 18 172 1.6 8.0 0.00 0.00 0.00 75 1011.1
20260505024600 18 172 1.6 8.0 0.00 0.00 0.00 74 1011.1
20260505024039 18 171 1.6 8.0 0.00 0.00 0.00 74 1011.1
20260505023538 18 168 1.6 8.0 0.00 0.00 0.00 74 1011.1
20260505023059 19 258 0.0 8.0 0.00 0.00 0.00 74 1011.1
20260505022539 19 258 1.6 8.0 0.00 0.00 0.00 73 1011.1
20260505022042 19 0 1.6 8.0 0.00 0.00 0.00 73 1011.0
20260505021557 19 206 1.6 8.0 0.00 0.00 0.00 73 1011.0
20260505021038 19 185 1.6 6.4 0.00 0.00 0.00 73 1011.1
20260505020538 19 221 1.6 6.4 0.00 0.00 0.00 72 1011.1
20260505020055 19 210 0.0 6.4 0.00 0.00 0.00 73 1011.1
20260505015538 19 227 0.0 6.4 0.00 0.00 0.00 73 1011.0